CW1020 Weather Reports


Display with metric or nautical units.
time (UTC)temp
F
wind
direction
speed
MPH
gust
MPH
rain 1hr
in
rain 24hr
in
rain mn
in
humidity
%
barometer
mb
20200119042406 43 28 2.0 5.0 0.00 0.00 0.00 33 1026.3
20200119041506 43 25 1.0 3.0 0.00 0.00 0.00 33 1026.1
20200119040606 43 6 1.0 4.0 0.00 0.00 0.00 34 1026.0
20200119035707 43 298 2.0 3.0 0.00 0.00 0.00 34 1025.9
20200119034806 43 298 2.0 4.0 0.00 0.00 0.00 35 1025.9
20200119033906 43 43 2.0 3.0 0.00 0.00 0.00 36 1025.8
20200119033007 43 41 2.0 5.0 0.00 0.00 0.00 36 1025.6
20200119032106 43 337 3.0 4.0 0.00 0.00 0.00 36 1025.4
20200119031207 43 317 3.0 5.0 0.00 0.00 0.00 35 1025.4
20200119030306 43 305 3.0 4.0 0.00 0.00 0.00 36 1025.4
20200119025407 43 296 3.0 6.0 0.00 0.00 0.00 37 1025.3
20200119024507 44 344 2.0 5.0 0.00 0.00 0.00 35 1025.3
20200119023607 44 18 3.0 4.0 0.00 0.00 0.00 37 1025.4
20200119022707 45 66 3.0 5.0 0.00 0.00 0.00 32 1025.6
20200119021807 45 129 4.0 10.0 0.00 0.00 0.00 31 1025.6
20200119020907 45 152 4.0 8.0 0.00 0.00 0.00 31 1025.5
20200119020007 46 108 4.0 9.0 0.00 0.00 0.00 31 1025.5
20200119015107 46 85 5.0 5.0 0.00 0.00 0.00 33 1025.4
20200119014207 46 127 6.0 11.0 0.00 0.00 0.00 32 1025.2
20200119013307 46 112 5.0 11.0 0.00 0.00 0.00 33 1025.2
20200119012407 46 116 7.0 12.0 0.00 0.00 0.00 32 1025.2
20200119011507 46 113 9.0 8.0 0.00 0.00 0.00 32 1025.0
20200119010607 46 124 7.0 13.0 0.00 0.00 0.00 32 1025.3
20200119005707 47 116 7.0 13.0 0.00 0.00 0.00 32 1025.2
20200119004807 47 108 8.0 11.0 0.00 0.00 0.00 31 1024.9
20200119003907 47 115 11.0 11.0 0.00 0.00 0.00 34 1024.8
20200119003007 48 121 8.0 21.0 0.00 0.00 0.00 33 1024.8
20200119002107 48 119 8.0 15.0 0.00 0.00 0.00 34 1025.0
20200119001207 49 102 9.0 14.0 0.00 0.00 0.00 33 1025.0
20200119000307 49 121 6.0 14.0 0.00 0.00 0.00 33 1025.0
20200118235407 49 92 8.0 7.0 0.00 0.00 0.00 34 1025.1
20200118234507 49 110 7.0 15.0 0.00 0.00 0.00 35 1025.1
20200118233607 48 92 8.0 11.0 0.00 0.00 0.00 35 1025.1
20200118232708 48 116 8.0 16.0 0.00 0.00 0.00 36 1025.0
20200118231808 48 114 10.0 14.0 0.00 0.00 0.00 36 1025.0
20200118230907 48 114 8.0 15.0 0.00 0.00 0.00 37 1024.9
20200118230008 49 112 5.0 16.0 0.00 0.00 0.00 36 1025.0
20200118225108 49 113 6.0 6.0 0.00 0.00 0.00 36 1025.1
20200118224208 49 115 8.0 11.0 0.00 0.00 0.00 36 1025.0
20200118223308 49 110 10.0 14.0 0.00 0.00 0.00 36 1024.9
20200118222408 49 109 10.0 18.0 0.00 0.00 0.00 35 1024.9
20200118221508 49 115 10.0 17.0 0.00 0.00 0.00 35 1025.1
20200118220608 49 106 11.0 15.0 0.00 0.00 0.00 36 1025.0
20200118215708 49 108 12.0 16.0 0.00 0.01 0.00 35 1025.1
20200118214808 50 107 11.0 19.0 0.00 0.01 0.00 35 1025.2
20200118213908 49 101 10.0 17.0 0.00 0.01 0.00 37 1025.2
20200118213008 49 116 7.0 15.0 0.00 0.01 0.00 36 1025.4
20200118212108 49 98 9.0 10.0 0.00 0.03 0.00 36 1025.5
20200118211208 48 107 11.0 21.0 0.00 0.03 0.00 37 1025.5
20200118210308 48 110 11.0 17.0 0.00 0.03 0.00 37 1025.6
20200118205408 48 110 9.0 14.0 0.00 0.07 0.00 38 1025.7
20200118204508 48 118 10.0 16.0 0.00 0.07 0.00 37 1025.7
20200118203608 48 123 10.0 16.0 0.00 0.07 0.00 37 1025.8
20200118202708 48 114 10.0 16.0 0.00 0.11 0.00 39 1026.0
20200118201808 48 107 10.0 23.0 0.00 0.11 0.00 38 1026.3
20200118200908 48 120 12.0 20.0 0.00 0.11 0.00 38 1026.4
20200118200008 48 118 7.0 20.0 0.00 0.11 0.00 39 1026.6
20200118195108 48 130 11.0 10.0 0.00 0.15 0.00 38 1026.4
20200118194208 48 107 9.0 19.0 0.00 0.15 0.00 39 1026.7
20200118193309 48 117 7.0 16.0 0.00 0.15 0.00 41 1026.9
20200118192408 48 135 8.0 13.0 0.00 0.20 0.00 40 1027.1
20200118191509 48 98 10.0 14.0 0.00 0.20 0.00 39 1027.2
20200118190609 48 109 11.0 15.0 0.00 0.20 0.00 38 1027.4
20200118185708 49 103 11.0 20.0 0.00 0.25 0.00 37 1027.3
20200118184809 48 105 7.0 20.0 0.00 0.25 0.00 38 1027.4
20200118183908 48 111 8.0 7.0 0.00 0.25 0.00 40 1027.4
20200118183008 47 109 9.0 18.0 0.00 0.25 0.00 40 1027.6
20200118182109 47 116 10.0 11.0 0.00 0.32 0.00 41 1027.7
20200118181209 47 115 10.0 15.0 0.00 0.32 0.00 41 1027.7
20200118180309 46 97 8.0 21.0 0.00 0.32 0.00 41 1027.9
20200118175409 46 128 7.0 12.0 0.00 0.36 0.00 41 1027.6
20200118174509 46 120 8.0 13.0 0.00 0.36 0.00 42 1027.5
20200118173609 45 117 7.0 14.0 0.00 0.36 0.00 42 1027.5
20200118172709 45 114 5.0 10.0 0.00 0.37 0.00 43 1027.4
20200118171809 44 119 4.0 7.0 0.00 0.37 0.00 44 1027.3
20200118170909 43 96 3.0 9.0 0.00 0.37 0.00 46 1027.2
20200118170009 42 114 2.0 3.0 0.00 0.37 0.00 46 1027.3
20200118165109 41 145 1.0 4.0 0.00 0.37 0.00 48 1027.1
20200118164209 40 30 4.0 3.0 0.00 0.37 0.00 48 1027.2
20200118163309 39 265 3.0 7.0 0.00 0.37 0.00 50 1027.1
20200118162410 39 340 2.0 5.0 0.00 0.37 0.00 49 1027.0
20200118161509 38 358 3.0 4.0 0.00 0.37 0.00 49 1026.9
20200118160609 38 340 3.0 4.0 0.00 0.37 0.00 49 1026.8
20200118155709 38 302 3.0 4.0 0.00 0.37 0.00 49 1026.5
20200118154809 37 286 2.0 5.0 0.00 0.37 0.00 48 1026.5
20200118153909 37 71 2.0 5.0 0.00 0.37 0.00 48 1026.5
20200118153009 37 321 3.0 4.0 0.00 0.37 0.00 49 1026.5
20200118152110 37 342 2.0 5.0 0.00 0.37 0.00 49 1026.5
20200118151210 37 337 4.0 2.0 0.00 0.37 0.00 49 1026.3
20200118150310 37 315 2.0 7.0 0.00 0.37 0.00 50 1026.1
20200118145409 37 296 3.0 3.0 0.00 0.37 0.00 49 1026.0
20200118144509 37 302 2.0 5.0 0.00 0.37 0.00 49 1026.0
20200118143610 37 310 3.0 4.0 0.00 0.37 0.00 49 1025.9
20200118142710 36 292 2.0 8.0 0.00 0.37 0.00 49 1025.9
20200118141809 36 149 1.0 2.0 0.00 0.37 0.00 49 1025.7
20200118140910 36 290 2.0 3.0 0.00 0.37 0.00 49 1025.6
20200118140010 37 280 1.0 5.0 0.00 0.37 0.00 49 1025.4
20200118135110 37 34 2.0 3.0 0.00 0.37 0.00 48 1025.4
20200118134210 37 45 2.0 5.0 0.00 0.37 0.00 49 1025.4
20200118133310 36 21 2.0 8.0 0.00 0.37 0.00 49 1025.4
20200118132410 36 66 1.0 3.0 0.00 0.37 0.00 49 1025.4
20200118131510 36 74 1.0 8.0 0.00 0.37 0.00 50 1025.5
20200118130610 36 33 1.0 2.0 0.00 0.37 0.00 50 1025.6
20200118125710 36 34 2.0 4.0 0.00 0.37 0.00 50 1025.3
20200118124810 36 265 2.0 5.0 0.00 0.37 0.00 50 1025.3
20200118123910 36 296 2.0 4.0 0.00 0.37 0.00 51 1025.2
20200118123010 36 18 2.0 4.0 0.00 0.37 0.00 50 1025.2
20200118122110 36 320 2.0 5.0 0.00 0.37 0.00 51 1025.2
20200118121210 37 337 3.0 3.0 0.00 0.37 0.00 51 1025.3
20200118120310 37 301 2.0 6.0 0.00 0.37 0.00 50 1025.4
20200118115410 37 43 3.0 6.0 0.00 0.37 0.00 50 1025.1
20200118114510 37 56 3.0 5.0 0.00 0.37 0.00 51 1025.2
20200118113610 37 327 3.0 4.0 0.00 0.37 0.00 50 1025.1
20200118112710 37 303 3.0 4.0 0.00 0.37 0.00 50 1025.2
20200118111810 37 279 3.0 5.0 0.00 0.37 0.00 50 1025.3
20200118110910 36 289 3.0 7.0 0.00 0.37 0.00 51 1025.1
20200118110010 36 295 2.0 4.0 0.00 0.37 0.00 52 1025.1
20200118105111 36 70 3.0 3.0 0.00 0.37 0.00 52 1025.1
20200118104210 37 287 2.0 6.0 0.00 0.37 0.00 52 1025.0
20200118103311 37 33 2.0 3.0 0.00 0.37 0.00 52 1025.0
20200118102410 37 97 2.0 6.0 0.00 0.37 0.00 52 1025.0
20200118101510 37 168 2.0 6.0 0.00 0.37 0.00 53 1025.1
20200118100611 37 272 2.0 3.0 0.00 0.37 0.00 53 1025.2
20200118095711 37 299 3.0 4.0 0.00 0.37 0.00 53 1025.2
20200118094811 37 335 2.0 4.0 0.00 0.37 0.00 53 1025.2
20200118093911 37 317 2.0 3.0 0.00 0.37 0.00 54 1025.2
20200118093011 37 288 2.0 5.0 0.00 0.37 0.00 55 1025.1
20200118092111 36 293 2.0 3.0 0.00 0.37 0.00 54 1025.0
20200118090752 36 244 1.0 4.0 0.00 0.37 0.00 56 1025.0
20200118085852 36 355 3.0 2.0 0.00 0.37 0.00 57 1025.0
20200118084952 36 271 4.0 9.0 0.00 0.37 0.00 57 1025.1
20200118084052 35 260 2.0 7.0 0.00 0.37 0.00 58 1025.1
20200118083152 35 275 4.0 5.0 0.00 0.37 0.00 61 1025.1
20200118082252 34 264 3.0 7.0 0.00 0.37 0.00 63 1025.2
20200118081352 33 276 2.0 6.0 0.00 0.37 0.00 66 1025.2
20200118080452 32 94 1.0 3.0 0.00 0.37 0.00 69 1025.3
20200118075552 31 121 1.0 3.0 0.00 0.37 0.37 71 1025.2
20200118074652 31 120 2.0 3.0 0.00 0.37 0.37 73 1025.3
20200118073752 30 125 2.0 1.0 0.00 0.37 0.37 76 1025.5
20200118072852 29 167 2.0 5.0 0.00 0.37 0.37 77 1025.5
20200118071952 29 215 2.0 3.0 0.00 0.37 0.37 76 1025.5
20200118071052 30 127 2.0 3.0 0.00 0.37 0.37 76 1025.3
20200118070152 30 127 1.0 3.0 0.00 0.37 0.37 75 1025.4
20200118065252 30 125 1.0 4.0 0.00 0.37 0.37 75 1025.4
20200118064352 31 0 0.0 0.0 0.00 0.37 0.37 73 1025.3
20200118063453 31 0 0.0 0.0 0.00 0.37 0.37 72 1025.3
20200118062553 32 0 0.0 0.0 0.00 0.37 0.37 70 1025.2
20200118061652 32 0 0.0 0.0 0.00 0.37 0.37 70 1025.1
20200118060752 32 0 0.0 0.0 0.00 0.37 0.37 69 1025.1
20200118055853 33 0 1.0 0.0 0.00 0.37 0.37 68 1025.0
20200118054952 33 155 1.0 3.0 0.00 0.37 0.37 68 1025.1
20200118054053 34 155 1.0 3.0 0.00 0.37 0.37 67 1025.0
20200118053152 34 155 1.0 2.0 0.00 0.37 0.37 66 1024.9
20200118052253 34 155 1.0 2.0 0.00 0.37 0.37 66 1024.9
20200118051353 35 154 0.0 2.0 0.00 0.37 0.37 64 1024.8
20200118050453 36 154 1.0 1.0 0.00 0.37 0.37 63 1024.9
20200118045553 36 237 2.0 2.0 0.00 0.37 0.37 61 1024.6
20200118044653 36 274 1.0 5.0 0.00 0.37 0.37 61 1024.8
20200118043753 36 276 1.0 2.0 0.00 0.37 0.37 61 1024.8